Waarnemingen

Advertentie
Mijn weer
Helgoland, Duitsland (10015): temperatuur & dauwpunt: 23.03.2017 21:00:00 - 29.03.2017 21:00:00 (CEST)Helgoland, Duitsland (10015): temperatuur 5cm: 23.03.2017 21:00:00 - 29.03.2017 21:00:00 (CEST)Helgoland, Duitsland (10015): windsnelheid & windstoten: 23.03.2017 21:00:00 - 29.03.2017 21:00:00 (CEST)Helgoland, Duitsland (10015): windrichting: 23.03.2017 21:00:00 - 29.03.2017 21:00:00 (CEST)Helgoland, Duitsland (10015): luchtdruk: 23.03.2017 21:00:00 - 29.03.2017 21:00:00 (CEST)Helgoland, Duitsland (10015): zicht: 23.03.2017 21:00:00 - 29.03.2017 21:00:00 (CEST)Helgoland, Duitsland (10015): Zonneschijnduur: 23.03.2017 21:00:00 - 29.03.2017 21:00:00 (CEST)Helgoland, Duitsland (10015): neerslag: 23.03.2017 21:00:00 - 29.03.2017 21:00:00 (CEST)
Datum & Tijd tt [°C] td [°C] tt 5cm [°C] ff [km/u] ff [kn] fx [km/u] fx [kn] dd ppp [hPa] vv [km] sd [min] rr [mm]
29.03.2017 21:00:00 6,6 6,6 7,0 12 7 18 10 ZW 1022,0 0,9 0 0,0
29.03.2017 20:00:00 6,6 6,6 7,0 14 7 23 12 WZW 1021,3 0,6 0 0,0
29.03.2017 19:00:00 6,7 6,4 7,4 17 9 22 12 WZW 1020,8 1,3 0 0,0
29.03.2017 18:00:00 6,8 6,5 8,0 10 6 16 9 W 1020,5 2,1 0 0,0
29.03.2017 17:00:00 7,0 6,2 8,6 13 7 16 9 WZW 1020,6 3,5 0 0,0
29.03.2017 16:00:00 7,3 7,0 9,4 12 7 20 11 W 1020,4 1,3 0 0,0
29.03.2017 15:00:00 7,7 7,5 10,4 15 8 23 12 W 1020,3 2,0 0 0,0
29.03.2017 14:00:00 7,5 6,6 9,8 17 9 31 17 W 1020,4 5 0 0,0
29.03.2017 13:00:00 7,6 6,8 9,7 27 15 36 19 W 1020,3 6 12 0,0
29.03.2017 12:00:00 7,9 6,8 10,4 29 16 39 21 WZW 1019,7 6 40 0,0
29.03.2017 11:00:00 7,2 6,2 8,4 29 15 37 20 WZW 1019,1 6 1 0,0
29.03.2017 10:00:00 7,2 6,2 7,8 29 16 42 23 WZW 1018,4 6 7 0,0
29.03.2017 09:00:00 7,3 6,4 7,2 30 16 44 24 WZW 1018,0 7 0 0,0
29.03.2017 08:00:00 7,3 6,4 6,9 31 17 43 23 WZW 1017,5 6 0 0,0
29.03.2017 07:00:00 7,3 6,7 6,8 27 15 39 21 ZW 1017,3 3,6 0 0,0
29.03.2017 06:00:00 7,2 6,8 7,0 23 12 42 23 WZW 1017,4 2,2 0 0,0
29.03.2017 05:00:00 7,1 6,5 6,9 32 18 41 22 WZW 1017,6 3,2 0 0,0
29.03.2017 04:00:00 6,8 6,4 6,5 24 13 32 18 WZW 1017,6 2,0 0 0,2
29.03.2017 03:00:00 7,1 6,4 6,9 27 15 34 18 WZW 1018,0 1,6 0 0,0
29.03.2017 02:00:00 5,2 4,9 4,7 12 6 17 9 ZZW 1018,1 4,4 0 0,0
29.03.2017 01:00:00 3,4 3,4 3,3 6 4 10 5 WZW 1018,6 0,4 0 0,0
29.03.2017 00:00:00 3,6 3,5 3,5 10 5 16 8 WNW 1018,9 0,2 0 0,0
28.03.2017 23:00:00 4,5 4,4 3,6 9 5 12 7 WZW 1019,0 4,4 0 0,0
28.03.2017 22:00:00 3,7 3,7 3,3 10 5 14 8 W 1019,0 0,7 0 0,0
28.03.2017 21:00:00 4,4 4,1 4,2 13 7 15 8 WNW 1019,1 0,6 0 0,0
28.03.2017 20:00:00 6,3 5,5 5,0 9 5 14 7 W 1019,1 6 17 0,0
28.03.2017 19:00:00 7,4 5,5 8,3 11 6 15 8 ZW 1019,0 7 60 0,0
28.03.2017 18:00:00 8,5 5,6 11,0 10 5 12 7 ZW 1019,1 5 60 0,0
28.03.2017 17:00:00 8,8 5,3 12,7 5 3 7 4 ZW 1019,2 8 60 0,0
28.03.2017 16:00:00 8,8 5,0 13,4 3 2 11 6 W 1019,5 6 60 0,0
28.03.2017 15:00:00 9,1 5,8 15,4 9 5 18 10 NNW 1019,6 7 60 0,0
28.03.2017 14:00:00 9,9 5,8 15,1 6 3 8 4 ZW 1019,9 5 60 0,0
28.03.2017 13:00:00 8,9 4,9 14,0 5 3 7 4 Z 1020,2 7 59 0,0
28.03.2017 12:00:00 9,1 5,6 12,5 5 3 13 7 ZO 1020,6 8 60 0,0
28.03.2017 11:00:00 8,2 5,6 11,0 10 5 14 7 ZO 1020,5 10 60 0,0
28.03.2017 10:00:00 7,0 5,2 8,9 11 6 14 8 O 1020,5 11 60 0,0
28.03.2017 09:00:00 5,8 5,2 6,6 11 6 18 10 O 1020,4 8 33 0,0
28.03.2017 08:00:00 3,8 3,8 3,8 13 7 15 8 O 1020,4 0,2 0 0,0
28.03.2017 07:00:00 3,3 3,3 3,0 12 6 17 9 ONO 1020,4 0,2 0 0,0
28.03.2017 06:00:00 3,2 3,2 3,1 14 8 17 9 NO 1020,7 0,1 0 0,0
28.03.2017 05:00:00 3,2 3,2 3,3 14 8 19 10 NNO 1021,1 0,1 0 0,0
28.03.2017 04:00:00 3,5 3,5 3,5 15 8 18 10 NO 1021,8 0,2 0 0,0
28.03.2017 03:00:00 3,3 3,3 3,2 15 8 18 10 NNO 1022,3 0,2 0 0,0
28.03.2017 02:00:00 3,4 3,4 3,4 13 7 17 9 NNO 1022,8 0,1 0 0,0
28.03.2017 01:00:00 3,6 3,6 3,8 14 8 18 10 NNO 1023,0 0,1 0 0,0
28.03.2017 00:00:00 3,9 3,9 4,0 16 9 19 11 NO 1023,2 0,1 0 0,0
27.03.2017 23:00:00 3,9 3,9 4,1 16 9 19 11 NNO 1023,3 0,1 0 0,0
27.03.2017 22:00:00 4,1 4,1 4,1 14 8 19 10 NO 1023,6 0,1 0 0,0
27.03.2017 21:00:00 4,2 4,2 4,4 16 9 21 11 NNO 1023,4 0,2 0 0,0
27.03.2017 20:00:00 4,3 4,3 4,9 16 9 19 10 NNO 1023,3 0,1 0 0,0
27.03.2017 19:00:00 4,2 4,2 6,0 17 9 20 11 NNO 1023,6 0,2 0 0,0
27.03.2017 18:00:00 4,3 4,2 7,9 16 9 19 10 NNO 1024,0 0,3 1 0,0
27.03.2017 17:00:00 4,4 4,3 9,6 16 9 19 10 NNO 1024,5 0,6 7 0,0
27.03.2017 16:00:00 4,6 4,3 10,8 16 8 18 10 NNO 1025,2 0,5 7 0,0
27.03.2017 15:00:00 5,1 4,1 12,0 13 7 19 11 NO 1025,7 2,6 11 0,0
27.03.2017 14:00:00 4,5 3,8 9,2 17 9 21 12 NO 1026,4 1,4 2 0,0
27.03.2017 13:00:00 4,9 4,4 9,9 15 8 18 10 ONO 1026,8 1,8 3 0,0
27.03.2017 12:00:00 4,4 4,3 9,4 11 6 13 7 NO 1026,9 0,2 0 0,0
27.03.2017 11:00:00 4,2 4,2 6,8 5 3 14 8 ZZO 1026,9 0,1 0 0,0
27.03.2017 10:00:00 3,9 3,9 6,3 9 5 12 6 OZO 1027,0 0,1 0 0,0
27.03.2017 09:00:00 3,4 3,4 4,7 11 6 14 7 O 1026,9 0,2 0 0,0
27.03.2017 08:00:00 3,1 3,1 3,7 10 6 16 9 O 1026,5 0,1 0 0,0
27.03.2017 07:00:00 3,4 3,4 3,6 11 6 15 8 OZO 1026,8 0,2 0 0,0
27.03.2017 06:00:00 3,2 3,2 3,4 11 6 15 8 ONO 1026,7 0,2 0 0,0
27.03.2017 05:00:00 3,3 3,1 3,4 9 5 15 8 OZO 1026,7 0,1 0 0,0
27.03.2017 04:00:00 4,6 3,9 3,9 11 6 16 9 O 1026,9 13 0 0,0
27.03.2017 03:00:00 4,8 4,0 2,8 13 7 16 9 ONO 1027,2 35 0 0,0
27.03.2017 02:00:00 4,8 4,0 3,1 13 7 15 8 NO 1027,6 35 0 0,0
27.03.2017 01:00:00 5,1 4,3 3,1 12 6 16 8 NO 1027,8 22 0 0,0
27.03.2017 00:00:00 5,2 4,2 3,5 14 8 16 9 NNO 1027,8 37 0 0,0
26.03.2017 23:00:00 4,9 3,9 3,2 12 7 16 9 NNO 1027,6 36 0 0,0
26.03.2017 22:00:00 4,8 3,5 3,2 13 7 16 8 NNO 1027,5 31 0 0,0
26.03.2017 21:00:00 4,8 3,3 3,2 14 7 16 9 NNO 1027,4 19 0 0,0
26.03.2017 20:00:00 4,8 3,0 3,4 10 5 17 9 N 1027,3 22 23 0,0
26.03.2017 19:00:00 5,2 3,2 6,4 9 5 14 8 NNW 1027,4 23 4 0,0
26.03.2017 18:00:00 5,5 3,0 8,1 8 4 18 10 NNW 1027,3 28 0 0,0
26.03.2017 17:00:00 6,1 3,9 10,1 13 7 16 9 N 1027,5 19 0 0,0
26.03.2017 16:00:00 6,4 4,1 8,8 5 3 9 5 WNW 1027,9 26 0 0,0
26.03.2017 15:00:00 6,5 4,0 9,5 6 3 9 5 ZZW 1028,1 24 0 0,0
26.03.2017 14:00:00 6,1 4,3 9,6 4 2 8 4 O 1028,2 14 0 0,0
26.03.2017 13:00:00 6,4 5,0 10,2 7 4 15 8 ONO 1028,1 15 0 0,0
26.03.2017 12:00:00 5,8 4,7 9,4 10 5 16 8 N 1027,9 5 2 0,0
26.03.2017 11:00:00 6,0 4,7 9,2 13 7 18 10 NNO 1027,8 9 35 0,0
26.03.2017 10:00:00 6,5 4,9 8,4 17 9 21 11 N 1027,4 16 50 0,0
26.03.2017 09:00:00 6,3 4,7 6,2 13 7 17 9 NNO 1027,2 14 60 0,0
26.03.2017 08:00:00 6,1 4,8 4,3 12 7 17 9 NNO 1026,8 15 9 0,0
26.03.2017 07:00:00 6,0 4,7 3,6 12 7 21 11 N 1026,4 17 0 0,0
26.03.2017 06:00:00 6,2 4,6 4,3 17 9 23 12 N 1026,7 20 0 0,0
26.03.2017 05:00:00 6,2 4,7 4,3 19 10 24 13 N 1027,0 18 0 0,0
26.03.2017 04:00:00 6,3 4,2 4,0 14 8 17 9 NNW 1027,2 22 0 0,0
26.03.2017 03:00:00 6,3 4,1 3,9 11 6 16 9 NNW 1027,5 27 0 0,0
26.03.2017 02:00:00 6,0 4,4 4,3 13 7 19 10 NW 1027,6 23 0 0,0
26.03.2017 01:00:00 5,8 4,9 4,5 13 7 22 12 NW 1027,9 20 0 0,0
26.03.2017 00:00:00 5,8 5,0 4,6 15 8 19 10 NW 1028,3 14 0 0,0
25.03.2017 23:00:00 5,9 5,0 4,7 15 8 18 10 NW 1028,7 19 0 0,0
25.03.2017 22:00:00 6,2 4,8 4,5 10 5 16 9 NNW 1028,9 24 0 0,0
25.03.2017 21:00:00 6,5 4,7 5,2 10 5 15 8 NNW 1028,5 29 0 0,0
25.03.2017 20:00:00 6,6 4,7 5,7 13 7 23 13 NNW 1028,7 27 24 0,0
25.03.2017 19:00:00 6,9 4,7 8,9 19 10 24 13 NNW 1028,7 32 60 0,0
25.03.2017 18:00:00 7,5 4,6 11,1 19 10 30 16 NNW 1029,0 26 60 0,0
25.03.2017 17:00:00 7,6 5,1 12,3 25 13 34 18 NNW 1029,7 33 60 0,0
25.03.2017 16:00:00 7,5 4,5 13,2 22 12 31 17 NNW 1030,5 19 60 0,0
25.03.2017 15:00:00 7,3 4,5 12,5 22 12 27 15 NW 1031,6 13 60 0,0
25.03.2017 14:00:00 7,0 4,2 11,9 19 11 31 17 WNW 1032,1 16 60 0,0
25.03.2017 13:00:00 7,7 4,3 12,6 24 13 32 18 NNW 1032,8 17 60 0,0
25.03.2017 12:00:00 7,0 4,4 10,9 21 11 29 15 NW 1032,8 18 60 0,0
25.03.2017 11:00:00 6,2 4,2 7,8 18 10 24 13 WNW 1032,9 22 60 0,0
25.03.2017 10:00:00 5,9 4,6 6,9 19 11 27 14 NW 1032,9 28 60 0,0
25.03.2017 09:00:00 5,3 4,3 4,6 19 10 25 13 WNW 1032,7 29 21 0,0
25.03.2017 08:00:00 5,1 4,2 3,9 17 9 21 11 WNW 1032,8 31 0 0,0
25.03.2017 07:00:00 5,0 4,2 3,7 15 8 18 10 WNW 1032,8 35 0 0,0
25.03.2017 06:00:00 4,9 4,0 3,3 15 8 16 9 W 1032,9 40 0 0,0
25.03.2017 05:00:00 4,4 3,5 0,8 6 4 9 5 WNW 1033,7 32 0 0,0
25.03.2017 04:00:00 4,6 3,4 0,3 5 3 13 7 WNW 1034,2 37 0 0,0
25.03.2017 03:00:00 4,6 3,2 2,2 7 4 12 7 NW 1034,4 34 0 0,0
25.03.2017 02:00:00 4,7 3,4 0,7 7 4 13 7 NNW 1034,3 34 0 0,0
25.03.2017 01:00:00 5,1 3,3 2,5 10 5 17 9 N 1034,4 47 0 0,0
25.03.2017 00:00:00 5,3 3,3 3,7 12 7 19 10 N 1034,6 39 0 0,0
24.03.2017 23:00:00 5,4 2,9 3,8 16 8 20 11 N 1034,6 45 0 0,0
24.03.2017 22:00:00 5,4 2,0 3,3 13 7 18 10 N 1034,5 61 0 0,0
24.03.2017 21:00:00 5,5 2,5 3,3 13 7 20 11 N 1034,1 59 0 0,0
24.03.2017 20:00:00 5,6 2,1 4,0 15 8 21 11 N 1034,1 70 15 0,0
24.03.2017 19:00:00 6,2 2,7 7,9 13 7 19 10 N 1033,6 46 60 0,0
24.03.2017 18:00:00 6,6 3,5 10,6 16 9 20 11 N 1033,7 28 60 0,0
24.03.2017 17:00:00 7,0 4,0 13,1 14 8 19 10 N 1033,9 13 60 0,0
24.03.2017 16:00:00 7,0 3,7 15,0 11 6 17 9 N 1034,1 15 60 0,0
24.03.2017 15:00:00 6,8 3,3 16,3 7 4 11 6 NNW 1033,9 12 60 0,0
24.03.2017 14:00:00 7,0 3,6 15,8 4 2 7 4 NNO 1033,9 9 60 0,0
24.03.2017 13:00:00 6,6 3,9 13,9 5 3 14 7 NO 1033,6 8 60 0,0
24.03.2017 12:00:00 6,5 3,6 12,6 10 6 15 8 NO 1032,8 11 60 0,0
24.03.2017 11:00:00 6,0 3,5 9,0 12 6 15 8 NNO 1032,7 8 58 0,0
24.03.2017 10:00:00 6,0 3,0 7,2 12 6 14 8 NO 1032,2 11 60 0,0
24.03.2017 09:00:00 5,5 3,5 5,3 11 6 13 7 NO 1031,8 6 54 0,0
24.03.2017 08:00:00 4,9 3,8 1,5 11 6 15 8 NO 1031,2 6 5 0,0
24.03.2017 07:00:00 4,9 3,5 1,8 11 6 18 10 NO 1030,6 6 0 0,0
24.03.2017 06:00:00 5,1 3,6 2,3 16 9 19 11 NNO 1029,7 10 0 0,0
24.03.2017 05:00:00 4,8 3,1 0,1 8 5 13 7 NO 1029,6 9 0 0,0
24.03.2017 04:00:00 4,9 3,1 1,7 11 6 16 9 ONO 1028,8 12 0 0,0
24.03.2017 03:00:00 5,1 3,5 2,3 15 8 17 9 ONO 1028,4 12 0 0,0
24.03.2017 02:00:00 5,3 3,2 2,5 16 9 20 11 ONO 1027,9 14 0 0,0
24.03.2017 01:00:00 5,7 3,1 3,0 17 9 21 12 ONO 1027,5 17 0 0,0
24.03.2017 00:00:00 6,0 2,5 3,4 20 11 23 12 NO 1027,1 26 0 0,0
23.03.2017 23:00:00 5,9 2,6 3,3 18 10 20 11 ONO 1026,8 22 0 0,0
23.03.2017 22:00:00 6,3 2,7 3,6 18 10 28 15 ONO 1026,1 36 0 0,0
23.03.2017 21:00:00 - - - - - - - - - - - -

tt = temperatuur
td = dauwpunt
tt 5cm = temperatuur 5cm
ff = windsnelheid
fx = windstoten
dd = windrichting
ppp = luchtdruk
vv = zicht
sd = Zonneschijnduur
rr = neerslag

Weerstations in de omgeving